#timestamp,LO_Frequency,Hit,StdDev 
1561248015.1,286047038.0,Y
1561248035.9,286047010.8,P
1561248055.7,286047008.2,N
1561248075.5,286047006.1,N
1561248095.4,286047009.1,N
1561248115.2,286047010.8,N
1561248135.1,286047005.8,N
1561248136.0,286047005.8,N
1561248155.8,286047006.9,N
1561248175.6,286047009.0,N
1561248195.5,286047011.9,N
1561248215.3,286047025.1,Y
1561248235.1,286047009.4,P
1561248255.9,286047012.1,P
1561248275.7,286047008.2,P
1561248295.6,286047010.8,Y
1561248315.4,286046996.8,P
1561248335.2,286046998.5,N
1561248355.1,286047001.1,N
1561248356.0,286047001.1,N
1561248375.8,286046998.7,N
1561248395.7,286047000.5,N
1561248415.5,286046997.3,N
1561248435.3,286046995.5,N
1561248455.2,286046995.4,N
1561248475.0,286046994.6,N
1561248475.9,286046994.6,N
1561248495.7,286046991.8,N
1561248515.6,286046994.4,N
1561248535.4,286046996.2,N
1561248555.3,286046995.1,N
1561248575.1,286046999.5,N
1561248576.0,286046999.5,N
1561248595.8,286046998.3,N
1561248615.7,286047003.0,N
1561248635.5,286047008.4,N
1561248655.4,286047004.5,N
1561248675.2,286047007.6,N
1561248695.0,286047004.1,N
1561248695.9,286047004.1,N
1561248715.8,286046998.3,N
1561248735.6,286046997.4,N
1561248755.4,286046989.2,N
1561248775.3,286046991.6,N
1561248795.1,286046994.1,N
1561248815.9,286046996.6,N
1561248835.7,286046995.1,N
1561248855.5,286046993.7,N
1561248875.4,286046992.6,N
1561248895.2,286046992.9,N
1561248915.0,286046995.4,N
1561248915.9,286046995.4,N
1561248935.8,286046993.6,N
1561248955.6,286046993.9,N
1561248975.5,286046994.5,N
1561248995.3,286046993.5,N
1561249015.1,286046994.1,N
1561249035.9,286046991.3,N
1561249055.7,286046989.7,N
1561249075.5,286046988.1,N
1561249095.4,286046986.0,N
1561249115.2,286046984.1,N
1561249135.1,286046990.6,N
1561249136.0,286046990.6,N
1561249155.8,286046992.4,N
1561249175.6,286046995.1,N
1561249195.5,286046999.2,N
1561249215.3,286046998.1,N
1561249235.2,286046996.5,N
1561249255.9,286047001.0,N
1561249275.7,286046996.7,N
1561249295.6,286046995.6,N
1561249315.4,286046991.9,N
1561249335.2,286046992.4,N
1561249355.1,286046994.8,N
1561249356.0,286046994.8,N
1561249375.8,286046990.0,N
1561249395.7,286046987.0,Y
1561249415.5,286046996.2,P
1561249435.3,286046994.9,P
1561249455.2,286046995.3,P
1561249475.0,286046994.0,Y
1561249475.9,286046994.0,P
1561249495.8,286046999.1,N
1561249515.6,286046994.8,N
1561249535.4,286046991.6,Y
1561249555.3,286046995.6,P
1561249575.1,286046994.1,P
1561249595.9,286046994.9,P
1561249615.7,286046993.4,Y
1561249635.5,286046999.1,P
1561249655.4,286046998.7,N
1561249675.2,286046991.3,P
1561249695.1,286046996.4,N
1561249696.0,286046996.4,N
1561249715.8,286046999.1,N
1561249735.6,286046992.1,Y
1561249755.5,286046992.2,P
1561249775.3,286046990.9,P
1561249795.1,286046990.2,P
1561249815.9,286046990.8,Y
1561249835.2,286046997.2,P
1561249855.0,286046997.2,N
1561249855.9,286046997.2,N
1561249875.8,286046995.4,N
1561249895.6,286046994.9,N
1561249915.5,286046996.6,N
1561249935.3,286046995.1,Y
1561249955.1,286047000.7,P
1561249975.9,286047005.6,N
1561249995.7,286047004.2,N
1561250015.6,286047005.4,N
1561250035.4,286047005.1,N
1561250055.2,286046999.9,N
1561250075.1,286047000.0,N
1561250076.0,286047000.0,N
1561250095.8,286046999.8,N
1561250115.6,286047002.1,N
1561250135.5,286047002.2,N
1561250155.3,286047003.4,N
1561250175.2,286047003.8,N
1561250195.9,286047002.1,N
1561250215.7,286047005.6,N
1561250235.6,286047007.4,N
1561250255.4,286047004.8,N
1561250275.2,286047003.9,N
1561250295.1,286047004.7,N
1561250296.0,286047004.7,N
1561250315.8,286047005.9,N
1561250335.7,286047006.9,N
1561250355.5,286047005.5,N
1561250375.3,286047003.0,N
1561250395.2,286047007.6,N
1561250415.0,286047005.6,N
1561250415.9,286047005.6,N
1561250435.8,286047004.6,N
1561250455.6,286047006.1,N
1561250475.4,286047008.3,Y
1561250495.3,286047006.5,P
1561250515.1,286047007.5,P
1561250535.8,286047005.1,P
1561250555.7,286047006.6,Y
1561250575.5,286046998.1,P
1561250595.4,286047004.4,N
1561250615.2,286047008.0,N
1561250635.0,286047009.9,N
1561250635.9,286047009.9,N
1561250655.8,286047008.0,N
1561250675.6,286047004.9,N
1561250695.5,286047001.5,N
1561250715.3,286046999.7,N
1561250735.1,286047009.9,N
1561250755.9,286047015.3,Y
1561250775.7,286047011.5,P
1561250795.5,286047014.1,P
1561250815.4,286047016.1,P
1561250835.2,286047011.7,N
1561250855.1,286047007.7,N
1561250856.0,286047007.7,N
1561250875.8,286047013.6,Y
1561250895.6,286047001.1,P
1561250915.5,286046999.1,N
1561250935.3,286046998.3,N
1561250955.2,286046997.7,N
1561250975.9,286046996.6,N
1561250995.7,286047003.2,N
1561251015.6,286047009.0,N
1561251035.4,286047011.9,N
1561251055.2,286047015.0,N
1561251075.1,286047019.7,Y
1561251076.0,286047019.7,P
1561251095.8,286047020.2,N
1561251115.7,286047019.1,N
1561251135.5,286047022.6,Y
1561251155.4,286047014.0,P
1561251175.2,286047012.7,P
1561251195.0,286047015.0,P
1561251226.0,286047018.1,E
1561251235.9,286047012.1,N
1561251255.7,286047004.7,P
1561251275.6,286047003.3,N
1561251295.4,286047003.1,N
1561251315.2,286046999.9,N
1561251335.1,286047001.9,N
1561251336.0,286047001.9,N
1561251355.8,286047005.3,N
1561251375.7,286047001.0,N
1561251395.5,286047000.0,N
1561251415.3,286047001.0,N
1561251435.2,286046997.4,N
1561251455.0,286046999.0,N
1561251455.9,286046999.0,N
1561251475.8,286046999.9,N
1561251495.6,286047001.6,N
1561251515.5,286047003.9,N
1561251535.3,286047001.1,N
1561251555.1,286046998.2,N
1561251575.9,286047000.3,N
1561251595.7,286047004.0,N
